Pittsfield, IL

6:12 PM CDT on September 25, 2017 (GMT -0500)
Pittsfield Penstone Municipal

Weather History for KPPQ - April, 2014

Change the Weather History Date:

Wednesday, April 23, 2014

  Actual Average (KUIN) Record (KUIN)
Temperature  
Mean Temperature 52 °F -  
Max Temperature 64 °F 64 °F 86 °F (1948)
Min Temperature 41 °F 46 °F 25 °F (1956)
Degree Days  
Heating Degree Days 12    
Growing Degree Days 2 (Base 50)    
Moisture  
Dew Point 32 °F    
Average Humidity 46    
Maximum Humidity 72    
Minimum Humidity 30    
Precipitation  
Precipitation 0.00 in - - ()
Sea Level Pressure  
Sea Level Pressure 30.06 in    
Wind  
Wind Speed 7 mph (East)    
Max Wind Speed 15 mph    
Max Gust Speed 21 mph    
Visibility 10 miles    
Events Rain    
Averages and records for this station are not official NWS values.
T = Trace of Precipitation, MM = Missing Value Source: NWS Daily Summary

Daily Weather History Graph

Daily Weather History Graph

Search for Another Location

Airport or City:

Trip Planner

Search our weather history database for the weather conditions in past years. The results will help you decide how hot, cold, wet, or windy it might be!

Date:

Astronomy

Apr. 23, 2014 Rise Set
Actual Time 6:14 AM CDT 7:49 PM CDT
Civil Twilight 5:45 AM CDT 8:17 PM CDT
Nautical Twilight 5:11 AM CDT 8:52 PM CDT
Astronomical Twilight 4:35 AM CDT 9:28 PM CDT
Moon 2:45 AM CDT (4/23) 1:59 PM CDT (4/23)
Length of Visible Light 14h 31m
Length of Day
13h 34m
Waning Crescent, 34% of the Moon is Illuminated
Apr 23
Waning Crescent
Apr 29
New
May 6
First Quarter
May 14
Full
May 21
Last Quarter

Hourly Weather History & Observations

Time (CDT) Temp. Windchill Dew Point Humidity Pressure Visibility Wind Dir Wind Speed Gust Speed Precip Events Conditions
12:15 AM 48.9 °F - 31.8 °F 52% 30.05 in 10.0 mi Calm Calm - N/A   Clear
12:35 AM 50.9 °F - 31.5 °F 47% 30.04 in 10.0 mi North 3.5 mph - N/A   Clear
12:55 AM 51.6 °F - 30.0 °F 44% 30.05 in 10.0 mi Calm Calm - N/A   Clear
1:15 AM 51.8 °F - 29.5 °F 42% 30.05 in 10.0 mi Calm Calm - N/A   Clear
1:35 AM 50.2 °F - 29.8 °F 46% 30.06 in 10.0 mi North 4.6 mph - N/A   Clear
1:55 AM 49.6 °F - 29.5 °F 46% 30.06 in 10.0 mi NNE 4.6 mph - N/A   Clear
2:15 AM 49.3 °F - 29.7 °F 47% 30.06 in 10.0 mi NNE 3.5 mph - N/A   Clear
2:35 AM 49.3 °F - 29.8 °F 47% 30.06 in 10.0 mi Calm Calm - N/A   Clear
2:55 AM 49.3 °F - 29.8 °F 47% 30.07 in 10.0 mi NE 4.6 mph - N/A   Clear
3:15 AM 48.0 °F - 31.5 °F 53% 30.07 in 10.0 mi NE 5.8 mph - N/A   Scattered Clouds
3:35 AM 47.7 °F - 32.0 °F 55% 30.07 in 10.0 mi ENE 6.9 mph - N/A   Scattered Clouds
3:55 AM 46.6 °F - 32.5 °F 58% 30.08 in 10.0 mi ENE 9.2 mph - N/A   Scattered Clouds
4:15 AM 45.3 °F 41.1 °F 33.8 °F 64% 30.08 in 10.0 mi ENE 8.1 mph - N/A   Clear
4:35 AM 44.4 °F 40.5 °F 34.7 °F 69% 30.08 in 10.0 mi ENE 6.9 mph - N/A   Clear
4:55 AM 43.7 °F 39.7 °F 34.5 °F 70% 30.09 in 10.0 mi ENE 6.9 mph - N/A   Clear
5:15 AM 43.2 °F 39.0 °F 34.2 °F 71% 30.09 in 10.0 mi ENE 6.9 mph - N/A   Clear
5:35 AM 42.8 °F 38.6 °F 34.2 °F 72% 30.10 in 10.0 mi East 6.9 mph - N/A   Clear
5:55 AM 43.0 °F 38.2 °F 33.3 °F 69% 30.11 in 10.0 mi East 8.1 mph - N/A   Clear
6:15 AM 42.4 °F 37.5 °F 32.9 °F 69% 30.11 in 10.0 mi ENE 8.1 mph - N/A   Clear
6:35 AM 41.9 °F 38.2 °F 32.5 °F 69% 30.13 in 10.0 mi ENE 5.8 mph - N/A   Clear
6:55 AM 42.3 °F 37.9 °F 32.4 °F 68% 30.13 in 10.0 mi East 6.9 mph - N/A   Clear
7:15 AM 43.2 °F 38.4 °F 32.0 °F 65% 30.14 in 10.0 mi East 8.1 mph - N/A   Clear
7:35 AM 43.9 °F 37.2 °F 31.6 °F 62% 30.14 in 10.0 mi East 13.8 mph 18.4 mph N/A   Clear
7:55 AM 45.5 °F 39.6 °F 30.7 °F 56% 30.16 in 10.0 mi East 12.7 mph 16.1 mph N/A   Clear
8:15 AM 47.3 °F - 31.3 °F 54% 30.16 in 10.0 mi East 12.7 mph - N/A   Clear
8:35 AM 48.2 °F - 30.7 °F 51% 30.16 in 10.0 mi East 12.7 mph - N/A   Clear
8:55 AM 49.3 °F - 31.1 °F 50% 30.15 in 10.0 mi East 11.5 mph 16.1 mph N/A   Clear
9:15 AM 50.7 °F - 31.3 °F 47% 30.15 in 10.0 mi East 10.4 mph - N/A   Clear
9:35 AM 52.3 °F - 31.5 °F 45% 30.15 in 10.0 mi East 11.5 mph - N/A   Scattered Clouds
9:55 AM 53.1 °F - 31.1 °F 43% 30.15 in 10.0 mi East 9.2 mph - N/A   Scattered Clouds
10:15 AM 54.5 °F - 31.6 °F 42% 30.14 in 10.0 mi SE 15.0 mph 20.7 mph N/A   Clear
10:35 AM 55.6 °F - 31.6 °F 40% 30.14 in 10.0 mi East 9.2 mph 16.1 mph N/A   Clear
10:55 AM 56.8 °F - 30.9 °F 37% 30.13 in 10.0 mi East 12.7 mph - N/A   Scattered Clouds
11:15 AM 56.7 °F - 31.1 °F 38% 30.13 in 10.0 mi East 10.4 mph - N/A   Mostly Cloudy
11:35 AM 56.8 °F - 30.7 °F 37% 30.13 in 10.0 mi East 10.4 mph 16.1 mph N/A   Scattered Clouds
11:55 AM 56.5 °F - 31.3 °F 38% 30.12 in 10.0 mi East 10.4 mph - N/A   Mostly Cloudy
12:15 PM 58.1 °F - 31.8 °F 37% 30.11 in 10.0 mi ESE 11.5 mph 16.1 mph N/A   Scattered Clouds
12:35 PM 58.5 °F - 30.9 °F 35% 30.11 in 10.0 mi ESE 12.7 mph 18.4 mph N/A   Scattered Clouds
12:55 PM 57.6 °F - 31.5 °F 37% 30.10 in 10.0 mi ESE 6.9 mph - N/A   Mostly Cloudy
1:15 PM 59.0 °F - 31.8 °F 36% 30.09 in 10.0 mi ESE 10.4 mph - N/A   Scattered Clouds
1:35 PM 61.2 °F - 32.0 °F 33% 30.09 in 10.0 mi ESE 11.5 mph 16.1 mph N/A   Scattered Clouds
1:55 PM 61.0 °F - 32.0 °F 34% 30.07 in 10.0 mi ESE 10.4 mph - N/A   Scattered Clouds
2:15 PM 61.3 °F - 31.6 °F 33% 30.07 in 10.0 mi ESE 11.5 mph - N/A   Mostly Cloudy
2:35 PM 64.4 °F - 32.0 °F 30% 30.06 in 10.0 mi ESE 12.7 mph - N/A   Scattered Clouds
2:55 PM 64.0 °F - 31.5 °F 30% 30.05 in 10.0 mi SE 15.0 mph - N/A   Clear
3:15 PM 63.1 °F - 31.1 °F 30% 30.04 in 10.0 mi SE 12.7 mph 17.3 mph N/A   Clear
3:35 PM 62.2 °F - 30.4 °F 30% 30.04 in 10.0 mi ESE 10.4 mph - N/A   Scattered Clouds
3:55 PM 61.5 °F - 34.0 °F 36% 30.03 in 10.0 mi ESE 8.1 mph - N/A Rain Light Rain
4:15 PM 59.9 °F - 38.5 °F 45% 30.02 in 10.0 mi ESE 8.1 mph - N/A Rain Light Rain
4:35 PM 59.4 °F - 37.2 °F 44% 30.01 in 10.0 mi ESE 11.5 mph - N/A   Light Drizzle
4:55 PM 59.2 °F - 37.9 °F 45% 30.01 in 10.0 mi East 8.1 mph - N/A   Light Drizzle
5:15 PM 60.3 °F - 35.2 °F 39% 30.02 in 10.0 mi East 9.2 mph - N/A   Scattered Clouds
5:35 PM 60.1 °F - 34.3 °F 38% 30.01 in 10.0 mi East 11.5 mph - N/A   Clear
5:55 PM 60.8 °F - 33.8 °F 36% 30.01 in 10.0 mi East 8.1 mph - N/A   Clear
6:15 PM 60.1 °F - 35.1 °F 39% 30.01 in 10.0 mi East 8.1 mph - N/A   Clear
6:35 PM 59.9 °F - 34.2 °F 38% 30.00 in 10.0 mi East 10.4 mph - N/A   Clear
6:55 PM 59.4 °F - 34.3 °F 39% 30.00 in 10.0 mi ESE 8.1 mph - N/A   Clear
7:15 PM 59.0 °F - 34.0 °F 39% 29.99 in 10.0 mi East 8.1 mph - N/A   Clear
7:35 PM 58.1 °F - 34.0 °F 40% 29.98 in 10.0 mi East 5.8 mph - N/A   Scattered Clouds
7:55 PM 57.7 °F - 33.6 °F 40% 29.97 in 10.0 mi East 6.9 mph - N/A   Scattered Clouds
8:15 PM 56.5 °F - 34.2 °F 43% 29.97 in 10.0 mi East 8.1 mph - N/A   Clear
8:35 PM 56.3 °F - 34.0 °F 43% 29.96 in 10.0 mi ESE 8.1 mph - N/A   Clear
8:55 PM 56.3 °F - 34.7 °F 44% 29.96 in 10.0 mi East 10.4 mph - N/A   Clear
9:15 PM 56.1 °F - 34.5 °F 44% 29.95 in 10.0 mi ESE 11.5 mph - N/A   Clear
9:35 PM 56.1 °F - 33.3 °F 42% 29.94 in 10.0 mi ESE 12.7 mph - N/A   Clear
9:55 PM 55.6 °F - 32.9 °F 42% 29.94 in 10.0 mi ESE 11.5 mph - N/A   Clear
10:15 PM 55.2 °F - 32.5 °F 42% 29.94 in 10.0 mi ESE 13.8 mph - N/A   Clear
10:35 PM 54.7 °F - 32.5 °F 43% 29.93 in 10.0 mi ESE 13.8 mph 18.4 mph N/A   Clear
10:55 PM 54.7 °F - 32.2 °F 42% 29.93 in 10.0 mi ESE 12.7 mph - N/A   Clear
11:15 PM 54.5 °F - 32.0 °F 42% 29.93 in 10.0 mi ESE 12.7 mph - N/A   Clear
11:35 PM 54.5 °F - 32.0 °F 42% 29.93 in 10.0 mi ESE 11.5 mph 17.3 mph N/A   Clear
11:55 PM 54.7 °F - 32.0 °F 42% 29.92 in 10.0 mi ESE 13.8 mph - N/A   Clear